Regional Weather Roundup
Issued by NWS Charleston, SC

Home | Current Version | Previous Version | Text Only | Print | Product List | Glossary On
Versions: 1 2 3 4 5 6 7 8 9 10 11 12 13 14 15 16 17 18 19 20 21 22 23 24 25 26 27 28 29 30 31 32 33 34 35 36 37 38 39 40 41 42 43 44 45 46 47 48 49 50
000
ASUS42 KCHS 240445
RWRCHS

REGIONAL WEATHER ROUNDUP
NATIONAL WEATHER SERVICE CHARLESTON SC
1200 AM EDT SUN SEP 24 2017

NOTE: "FAIR" INDICATES FEW OR NO CLOUDS BELOW 12,000 FEET WITH NO
SIGNIFICANT WEATHER AND/OR OBSTRUCTIONS TO VISIBILITY.

NOT ALL STATIONS ARE QUALITY CONTROLLED. USE DATA WITH CAUTION...
ESPECIALLY DEWPOINT OBSERVATIONS.

SCZ027-030-031-034>040-042>050-240500-
...SOUTHEAST SOUTH CAROLINA...

CITY           SKY/WX    TMP DP  RH WIND       PRES   REMARKS
N CHARLESTON   PTCLDY    73  70  90 NE5       30.00S
WATERFRONT PRK   N/A     78  73  84 NE6       29.84S
JOHNS ISLAND   FAIR      73  72  94 CALM      30.00S
PINOPOLIS        N/A     75  72  88 VRB2      29.94S
MONCKS CORNER  FAIR      68  66  94 CALM      30.01S
SUMMERVILLE    FAIR      68  68 100 CALM      30.02S
BEAUFORT MCAS  CLEAR     75  73  93 NE3       29.99S
BEAUFORT ARPT  FAIR      75  72  88 E5        29.99S
HILTON HEAD IS CLEAR     79  73  83 E8        29.99F
WALTERBORO     CLEAR     66  64  94 CALM      30.01S
ALLENDALE      NOT AVBL

...SOUTHERN MIDLANDS AND PEE DEE...

CITY           SKY/WX    TMP DP  RH WIND       PRES   REMARKS
GEORGETOWN     FAIR      68  68 100 CALM      30.02S
KINGSTREE      FAIR      64  63  94 CALM      30.02S
ORANGEBURG     CLEAR     69  66  90 CALM      30.02S
BARNWELL       FAIR      70  68  94 CALM      30.01F
AIKEN          FAIR      66  64  94 CALM      30.05F
MANNING        FAIR      68  54  60 MISG      30.02S
COLUMBIA       CLEAR     70  64  81 CALM      30.02S
SUMTER         CLEAR     66  61  84 NE5       30.01S
FLORENCE       CLEAR     69  62  78 NE5       30.03S
MYRTLE BEACH   NOT AVBL
N MYRTLE BEACH CLEAR     71  69  93 N3        30.01S

$$

GAZ063-065-086>088-099>101-113>116-118-119-134>141-150-240500-
...SOUTHEAST GEORGIA...

CITY           SKY/WX    TMP DP  RH WIND       PRES   REMARKS
SAVANNAH ARPT  CLEAR     74  71  91 NE5       29.99F
HUNTER AAF     CLEAR     75  71  88 CALM      29.96F
FORT STEWART   CLEAR     70  68  93 CALM      29.97R
STATESBORO     PTCLDY    71  71  99 CALM      30.00F
SYLVANIA       CLOUDY    70  70 100 CALM      30.01S
CLAXTON        FAIR      70  69  98 CALM      30.00S

...CSRA...CENTRAL AND FAR SOUTHEAST GEORGIA...

CITY           SKY/WX    TMP DP  RH WIND       PRES   REMARKS
THOMSON        CLEAR     68  66  94 CALM      30.08S
AUGUSTA-BUSH   CLEAR     69  67  93 CALM      30.01S
AUGUSTA-DANIEL CLEAR     77  66  68 CALM      30.02F
SWAINSBORO     FAIR      70  70 100 CALM      30.02S
VIDALIA        CLEAR     72  70  94 CALM      30.01S
EASTMAN        FAIR      70  70 100 CALM      30.03S
HAZLEHURST     FAIR      73  70  91 CALM      29.99S
ALMA           PTCLDY    73  69  87 CALM      29.99S
WAYCROSS       CLEAR     73  69  90 E5        29.97F
JESUP          NOT AVBL
BAXLEY         FAIR      68  68 100 CALM      29.99S
BRUNSWICK      PTCLDY    75  70  83 NE6       29.97F
SAINT SIMONS   PTCLDY    80  72  76 NE12      29.96F

$$

SCZ027-028-034-036>038-045-046-048>050-GAZ119-141-240500-
...LAKE AND SUPPLEMENTAL COASTAL OBSERVATIONS...

STATION/POSITION TIME  TEMP    WIND        PRES    WAVE   SWELL
                       AIR SEA DIR/SP/G            HT/PER HT/PER/DIR
                 (UTC) (F)     (DEG/KT/KT) (MB)    (FT/S) (FT/S/D)
WINYAH BAY       0330   79      70/ 10     1016.0S
LAKE MURRAY      0420   74      40/  3/  4 1015.9
ACE BASIN NERRS  0345   73        CALM     1015.0S
FORT PULASKI     0400   79 81   90/ 14/ 16 1015.6
SAPELO ISLAND    0400   79        CALM     1015.0

$$

ANZ835-935-AMZ111-154-330-350-352-354-370-450-454-472-240500-
...C-MAN AND BUOY OBSERVATIONS...

STATION/POSITION TIME  TEMP    WIND        PRES    WAVE   SWELL
                       AIR SEA DIR/SP/G            HT/PER HT/PER/DIR
                 (UTC) (F)     (DEG/KT/KT) (MB)    (FT/S) (FT/S/D)
BUOY 41004       0410   80 82   50/ 14/ 17 1014.3
BUOY 41008       0350   81 81   70/ 16/ 19 1014.1R   6/ 6   3/110/13
FOLLY BEACH CMAN 0400   79      60/ 11/ 12 1016.2F
CAPERS NEARSHORE 0408   77 80   70/ 12/ 16 1015.3S
FRIPP NEARSHORE  0408   79      80/ 12/ 16 1021.4S


STATION/POSITION TIME  TEMP    WIND        PRES    WAVE   SWELL
                       AIR SEA DIR/SP/G            HT/PER HT/PER/DIR
                 (UTC) (F)     (DEG/KT/KT) (MB)    (FT/S) (FT/S/D)
5E ST. MARYS GA  0330      82                N/A     6/13   3/120/13
FRYING PAN BUOY  0410   81 82   60/ 16/ 21 1014.9
BUOY 41025       0350   72 75   40/ 16/ 19 1016.4F   7/15   7/150/15
CAPE LOOKOUT NC  0400   76      50/ 16/ 20 1016.4F
BUOY 41002       0350   79 80   50/ 21/ 25 1012.4F  15/14  13/140/14
BUOY 41010       0410           50/ 17/ 23 1012.4
ST AUGUSTINE FL  0400   82 82   50/ 15/ 17 1013.2F


$$




USA.gov is the U.S. government's official web portal to all federal, state and local government web resources and services.